Year,Month,Day,Hour,Minute,Value (Times are PST for temperature in C)
2006,08,18,00,00,13.10
2006,08,18,00,01,13.10
2006,08,18,00,02,13.10
2006,08,18,00,03,13.00
2006,08,18,00,04,13.00
2006,08,18,00,05,12.90
2006,08,18,00,06,12.90
2006,08,18,00,07,12.90
2006,08,18,00,08,12.80
2006,08,18,00,09,12.80
2006,08,18,00,10,12.70
2006,08,18,00,11,12.70
2006,08,18,00,12,12.70
2006,08,18,00,13,12.60
2006,08,18,00,14,12.60
2006,08,18,00,15,12.60
2006,08,18,00,16,12.50
2006,08,18,00,17,12.50
2006,08,18,00,18,12.50
2006,08,18,00,19,12.40
2006,08,18,00,20,12.40
2006,08,18,00,21,12.40
2006,08,18,00,22,12.30
2006,08,18,00,23,12.30
2006,08,18,00,24,12.30
2006,08,18,00,25,12.20
2006,08,18,00,26,12.20
2006,08,18,00,27,12.20
2006,08,18,00,28,12.20
2006,08,18,00,29,12.20
2006,08,18,00,30,12.10
2006,08,18,00,31,12.10
2006,08,18,00,32,12.10
2006,08,18,00,33,12.10
2006,08,18,00,34,12.10
2006,08,18,00,35,12.00
2006,08,18,00,36,12.00
2006,08,18,00,37,12.00
2006,08,18,00,38,11.90
2006,08,18,00,39,11.90
2006,08,18,00,40,11.90
2006,08,18,00,41,11.90
2006,08,18,00,42,11.90
2006,08,18,00,43,11.80
2006,08,18,00,44,11.80
2006,08,18,00,45,11.80
2006,08,18,00,46,11.80
2006,08,18,00,47,11.80
2006,08,18,00,48,11.80
2006,08,18,00,49,11.80
2006,08,18,00,50,11.80
2006,08,18,00,51,11.70
2006,08,18,00,52,11.70
2006,08,18,00,53,11.70
2006,08,18,00,54,11.70
2006,08,18,00,55,11.70
2006,08,18,00,56,11.70
2006,08,18,00,57,11.70
2006,08,18,00,58,11.60
2006,08,18,00,59,11.60
2006,08,18,01,00,11.60
2006,08,18,01,01,11.60
2006,08,18,01,02,11.60
2006,08,18,01,03,11.60
2006,08,18,01,04,11.50
2006,08,18,01,05,11.50
2006,08,18,01,06,11.50
2006,08,18,01,07,11.40
2006,08,18,01,08,11.40
2006,08,18,01,09,11.40
2006,08,18,01,10,11.40
2006,08,18,01,11,11.40
2006,08,18,01,12,11.40
2006,08,18,01,13,11.30
2006,08,18,01,14,11.30
2006,08,18,01,15,11.30
2006,08,18,01,16,11.30
2006,08,18,01,17,11.30
2006,08,18,01,18,11.30
2006,08,18,01,19,11.20
2006,08,18,01,20,11.20
2006,08,18,01,21,11.20
2006,08,18,01,22,11.20
2006,08,18,01,23,11.10
2006,08,18,01,24,11.10
2006,08,18,01,25,11.10
2006,08,18,01,26,11.10
2006,08,18,01,27,11.10
2006,08,18,01,28,11.00
2006,08,18,01,29,11.00
2006,08,18,01,30,11.00
2006,08,18,01,31,11.00
2006,08,18,01,32,10.90
2006,08,18,01,33,10.90
2006,08,18,01,34,10.90
2006,08,18,01,35,10.90
2006,08,18,01,36,10.90
2006,08,18,01,37,10.90
2006,08,18,01,38,10.80
2006,08,18,01,39,10.80
2006,08,18,01,40,10.80
2006,08,18,01,41,10.80
2006,08,18,01,42,10.80
2006,08,18,01,43,10.80
2006,08,18,01,44,10.80
2006,08,18,01,45,10.80
2006,08,18,01,46,10.80
2006,08,18,01,47,10.80
2006,08,18,01,48,10.80
2006,08,18,01,49,10.80
2006,08,18,01,50,10.70
2006,08,18,01,51,10.70
2006,08,18,01,52,10.70
2006,08,18,01,53,10.70
2006,08,18,01,54,10.70
2006,08,18,01,55,10.70
2006,08,18,01,56,10.70
2006,08,18,01,57,10.60
2006,08,18,01,58,10.60
2006,08,18,01,59,10.60
2006,08,18,02,00,10.60
2006,08,18,02,01,10.60
2006,08,18,02,02,10.60
2006,08,18,02,03,10.60
2006,08,18,02,04,10.50
2006,08,18,02,05,10.50
2006,08,18,02,06,10.50
2006,08,18,02,07,10.50
2006,08,18,02,08,10.50
2006,08,18,02,09,10.50
2006,08,18,02,10,10.40
2006,08,18,02,11,10.40
2006,08,18,02,12,10.40
2006,08,18,02,13,10.40
2006,08,18,02,14,10.40
2006,08,18,02,15,10.40
2006,08,18,02,16,10.30
2006,08,18,02,17,10.30
2006,08,18,02,18,10.30
2006,08,18,02,19,10.30
2006,08,18,02,20,10.30
2006,08,18,02,21,10.30
2006,08,18,02,22,10.30
2006,08,18,02,23,10.30
2006,08,18,02,24,10.30
2006,08,18,02,25,10.20
2006,08,18,02,26,10.20
2006,08,18,02,27,10.20
2006,08,18,02,28,10.20
2006,08,18,02,29,10.20
2006,08,18,02,30,10.20
2006,08,18,02,31,10.20
2006,08,18,02,32,10.10
2006,08,18,02,33,10.10
2006,08,18,02,34,10.10
2006,08,18,02,35,10.10
2006,08,18,02,36,10.10
2006,08,18,02,37,10.10
2006,08,18,02,38,10.00
2006,08,18,02,39,10.00
2006,08,18,02,40,10.00
2006,08,18,02,41,9.90
2006,08,18,02,42,9.90
2006,08,18,02,43,9.90
2006,08,18,02,44,9.90
2006,08,18,02,45,9.90
2006,08,18,02,46,9.90
2006,08,18,02,47,9.80
2006,08,18,02,48,9.80
2006,08,18,02,49,9.80
2006,08,18,02,50,9.80
2006,08,18,02,51,9.80
2006,08,18,02,52,9.80
2006,08,18,02,53,9.80
2006,08,18,02,54,9.80
2006,08,18,02,55,9.70
2006,08,18,02,56,9.70
2006,08,18,02,57,9.70
2006,08,18,02,58,9.70
2006,08,18,02,59,9.70
2006,08,18,03,00,9.70
2006,08,18,03,01,9.70
2006,08,18,03,02,9.70
2006,08,18,03,03,9.70
2006,08,18,03,04,9.60
2006,08,18,03,05,9.60
2006,08,18,03,06,9.60
2006,08,18,03,07,9.60
2006,08,18,03,08,9.60
2006,08,18,03,09,9.60
2006,08,18,03,10,9.60
2006,08,18,03,11,9.60
2006,08,18,03,12,9.60
2006,08,18,03,13,9.60
2006,08,18,03,14,9.60
2006,08,18,03,15,9.60
2006,08,18,03,16,9.50
2006,08,18,03,17,9.50
2006,08,18,03,18,9.50
2006,08,18,03,19,9.50
2006,08,18,03,20,9.40
2006,08,18,03,21,9.40
2006,08,18,03,22,9.40
2006,08,18,03,23,9.40
2006,08,18,03,24,9.40
2006,08,18,03,25,9.40
2006,08,18,03,26,9.40
2006,08,18,03,27,9.40
2006,08,18,03,28,9.40
2006,08,18,03,29,9.40
2006,08,18,03,30,9.40
2006,08,18,03,31,9.30
2006,08,18,03,32,9.30
2006,08,18,03,33,9.30
2006,08,18,03,34,9.30
2006,08,18,03,35,9.30
2006,08,18,03,36,9.30
2006,08,18,03,37,9.30
2006,08,18,03,38,9.30
2006,08,18,03,39,9.30
2006,08,18,03,40,9.30
2006,08,18,03,41,9.30
2006,08,18,03,42,9.30
2006,08,18,03,43,9.30
2006,08,18,03,44,9.30
2006,08,18,03,45,9.20
2006,08,18,03,46,9.20
2006,08,18,03,47,9.20
2006,08,18,03,48,9.20
2006,08,18,03,49,9.20
2006,08,18,03,50,9.20
2006,08,18,03,51,9.20
2006,08,18,03,52,9.20
2006,08,18,03,53,9.20
2006,08,18,03,54,9.20
2006,08,18,03,55,9.20
2006,08,18,03,56,9.20
2006,08,18,03,57,9.20
2006,08,18,03,58,9.20
2006,08,18,03,59,9.10
2006,08,18,04,00,9.10
2006,08,18,04,01,9.10
2006,08,18,04,02,9.10
2006,08,18,04,03,9.10
2006,08,18,04,04,9.10
2006,08,18,04,05,9.10
2006,08,18,04,06,9.10
2006,08,18,04,07,9.10
2006,08,18,04,08,9.10
2006,08,18,04,09,9.10
2006,08,18,04,10,9.10
2006,08,18,04,11,9.10
2006,08,18,04,12,9.10
2006,08,18,04,13,9.00
2006,08,18,04,14,9.00
2006,08,18,04,15,9.00
2006,08,18,04,16,9.10
2006,08,18,04,17,9.00
2006,08,18,04,18,9.00
2006,08,18,04,19,9.00
2006,08,18,04,20,9.00
2006,08,18,04,21,9.00
2006,08,18,04,22,9.00
2006,08,18,04,23,9.00
2006,08,18,04,24,9.00
2006,08,18,04,25,9.00
2006,08,18,04,26,9.00
2006,08,18,04,27,9.00
2006,08,18,04,28,9.00
2006,08,18,04,29,9.00
2006,08,18,04,30,9.00
2006,08,18,04,31,8.90
2006,08,18,04,32,8.90
2006,08,18,04,33,8.90
2006,08,18,04,34,8.90
2006,08,18,04,35,8.90
2006,08,18,04,36,8.90
2006,08,18,04,37,8.90
2006,08,18,04,38,8.90
2006,08,18,04,39,8.90
2006,08,18,04,40,8.90
2006,08,18,04,41,8.90
2006,08,18,04,42,8.80
2006,08,18,04,43,8.80
2006,08,18,04,44,8.80
2006,08,18,04,45,8.80
2006,08,18,04,46,8.80
2006,08,18,04,47,8.80
2006,08,18,04,48,8.80
2006,08,18,04,49,8.80
2006,08,18,04,50,8.80
2006,08,18,04,51,8.80
2006,08,18,04,52,8.80
2006,08,18,04,53,8.80
2006,08,18,04,54,8.80
2006,08,18,04,55,8.80
2006,08,18,04,56,8.80
2006,08,18,04,57,8.80
2006,08,18,04,58,8.80
2006,08,18,04,59,8.80
2006,08,18,05,00,8.80
2006,08,18,05,01,8.80
2006,08,18,05,02,8.80
2006,08,18,05,03,8.80
2006,08,18,05,04,8.80
2006,08,18,05,05,8.80
2006,08,18,05,06,8.80
2006,08,18,05,07,8.80
2006,08,18,05,08,8.80
2006,08,18,05,09,8.80
2006,08,18,05,10,8.80
2006,08,18,05,11,8.70
2006,08,18,05,12,8.70
2006,08,18,05,13,8.70
2006,08,18,05,14,8.70
2006,08,18,05,15,8.70
2006,08,18,05,16,8.70
2006,08,18,05,17,8.70
2006,08,18,05,18,8.70
2006,08,18,05,19,8.70
2006,08,18,05,20,8.70
2006,08,18,05,21,8.70
2006,08,18,05,22,8.70
2006,08,18,05,23,8.70
2006,08,18,05,24,8.70
2006,08,18,05,25,8.70
2006,08,18,05,26,8.70
2006,08,18,05,27,8.70
2006,08,18,05,28,8.70
2006,08,18,05,29,8.60
2006,08,18,05,30,8.60
2006,08,18,05,31,8.60
2006,08,18,05,32,8.60
2006,08,18,05,33,8.60
2006,08,18,05,34,8.60
2006,08,18,05,35,8.60
2006,08,18,05,36,8.60
2006,08,18,05,37,8.60
2006,08,18,05,38,8.60
2006,08,18,05,39,8.60
2006,08,18,05,40,8.60
2006,08,18,05,41,8.60
2006,08,18,05,42,8.60
2006,08,18,05,43,8.60
2006,08,18,05,44,8.60
2006,08,18,05,45,8.60
2006,08,18,05,46,8.50
2006,08,18,05,47,8.50
2006,08,18,05,48,8.50
2006,08,18,05,49,8.50
2006,08,18,05,50,8.50
2006,08,18,05,51,8.50
2006,08,18,05,52,8.50
2006,08,18,05,53,8.50
2006,08,18,05,54,8.40
2006,08,18,05,55,8.40
2006,08,18,05,56,8.40
2006,08,18,05,57,8.40
2006,08,18,05,58,8.40
2006,08,18,05,59,8.40
2006,08,18,06,00,8.40
2006,08,18,06,01,8.40
2006,08,18,06,02,8.40
2006,08,18,06,03,8.40
2006,08,18,06,04,8.40
2006,08,18,06,05,8.40
2006,08,18,06,06,8.40
2006,08,18,06,07,8.40
2006,08,18,06,08,8.40
2006,08,18,06,09,8.30
2006,08,18,06,10,8.30
2006,08,18,06,11,8.30
2006,08,18,06,12,8.30
2006,08,18,06,13,8.30
2006,08,18,06,14,8.30
2006,08,18,06,15,8.30
2006,08,18,06,16,8.30
2006,08,18,06,17,8.30
2006,08,18,06,18,8.30
2006,08,18,06,19,8.30
2006,08,18,06,20,8.30
2006,08,18,06,21,8.30
2006,08,18,06,22,8.30
2006,08,18,06,23,8.30
2006,08,18,06,24,8.30
2006,08,18,06,25,8.30
2006,08,18,06,26,8.30
2006,08,18,06,27,8.30
2006,08,18,06,28,8.30
2006,08,18,06,29,8.30
2006,08,18,06,30,8.30
2006,08,18,06,31,8.30
2006,08,18,06,32,8.30
2006,08,18,06,33,8.30
2006,08,18,06,34,8.30
2006,08,18,06,35,8.30
2006,08,18,06,36,8.20
2006,08,18,06,37,8.20
2006,08,18,06,38,8.20
2006,08,18,06,39,8.20
2006,08,18,06,40,8.20
2006,08,18,06,41,8.20
2006,08,18,06,42,8.20
2006,08,18,06,43,8.20
2006,08,18,06,44,8.20
2006,08,18,06,45,8.20
2006,08,18,06,46,8.30
2006,08,18,06,47,8.30
2006,08,18,06,48,8.30
2006,08,18,06,49,8.30
2006,08,18,06,50,8.30
2006,08,18,06,51,8.30
2006,08,18,06,52,8.30
2006,08,18,06,53,8.30
2006,08,18,06,54,8.30
2006,08,18,06,55,8.30
2006,08,18,06,56,8.30
2006,08,18,06,57,8.30
2006,08,18,06,58,8.30
2006,08,18,06,59,8.30
2006,08,18,07,00,8.30
2006,08,18,07,01,8.30
2006,08,18,07,02,8.30
2006,08,18,07,03,8.30
2006,08,18,07,04,8.30
2006,08,18,07,05,8.30
2006,08,18,07,06,8.30
2006,08,18,07,07,8.30
2006,08,18,07,08,8.30
2006,08,18,07,09,8.30
2006,08,18,07,10,8.30
2006,08,18,07,11,8.30
2006,08,18,07,12,8.30
2006,08,18,07,13,8.40
2006,08,18,07,14,8.40
2006,08,18,07,15,8.40
2006,08,18,07,16,8.40
2006,08,18,07,17,8.40
2006,08,18,07,18,8.40
2006,08,18,07,19,8.40
2006,08,18,07,20,8.40
2006,08,18,07,21,8.50
2006,08,18,07,22,8.50
2006,08,18,07,23,8.50
2006,08,18,07,24,8.50
2006,08,18,07,25,8.60
2006,08,18,07,26,8.60
2006,08,18,07,27,8.60
2006,08,18,07,28,8.60
2006,08,18,07,29,8.60
2006,08,18,07,30,8.70
2006,08,18,07,31,8.70
2006,08,18,07,32,8.70
2006,08,18,07,33,8.70
2006,08,18,07,34,8.80
2006,08,18,07,35,8.80
2006,08,18,07,36,8.80
2006,08,18,07,37,8.80
2006,08,18,07,38,8.90
2006,08,18,07,39,8.90
2006,08,18,07,40,8.90
2006,08,18,07,41,9.00
2006,08,18,07,42,9.00
2006,08,18,07,43,9.10
2006,08,18,07,44,9.10
2006,08,18,07,45,9.20
2006,08,18,07,46,9.20
2006,08,18,07,47,9.30
2006,08,18,07,48,9.30
2006,08,18,07,49,9.40
2006,08,18,07,50,9.50
2006,08,18,07,51,9.60
2006,08,18,07,52,9.70
2006,08,18,07,53,9.80
2006,08,18,07,54,9.80
2006,08,18,07,55,9.90
2006,08,18,07,56,9.90
2006,08,18,07,57,10.00
2006,08,18,07,58,10.10
2006,08,18,07,59,10.10
2006,08,18,08,00,10.20
2006,08,18,08,01,10.20
2006,08,18,08,02,10.30
2006,08,18,08,03,10.30
2006,08,18,08,04,10.40
2006,08,18,08,05,10.40
2006,08,18,08,06,10.50
2006,08,18,08,07,10.60
2006,08,18,08,08,10.60
2006,08,18,08,09,10.70
2006,08,18,08,10,10.80
2006,08,18,08,11,10.80
2006,08,18,08,12,10.90
2006,08,18,08,13,11.00
2006,08,18,08,14,11.10
2006,08,18,08,15,11.10
2006,08,18,08,16,11.20
2006,08,18,08,17,11.20
2006,08,18,08,18,11.30
2006,08,18,08,19,11.30
2006,08,18,08,20,11.40
2006,08,18,08,21,11.40
2006,08,18,08,22,11.50
2006,08,18,08,23,11.60
2006,08,18,08,24,11.70
2006,08,18,08,25,11.80
2006,08,18,08,26,11.90
2006,08,18,08,27,12.00
2006,08,18,08,28,12.10
2006,08,18,08,29,12.20
2006,08,18,08,30,12.30
2006,08,18,08,31,12.40
2006,08,18,08,32,12.50
2006,08,18,08,33,12.70
2006,08,18,08,34,12.80
2006,08,18,08,35,12.90
2006,08,18,08,36,13.00
2006,08,18,08,37,13.20
2006,08,18,08,38,13.30
2006,08,18,08,39,13.30
2006,08,18,08,40,13.40
2006,08,18,08,41,13.50
2006,08,18,08,42,13.50
2006,08,18,08,43,13.60
2006,08,18,08,44,13.60
2006,08,18,08,45,13.70
2006,08,18,08,46,13.70
2006,08,18,08,47,13.80
2006,08,18,08,48,13.80
2006,08,18,08,49,13.90
2006,08,18,08,50,14.00
2006,08,18,08,51,14.00
2006,08,18,08,52,14.10
2006,08,18,08,53,14.20
2006,08,18,08,54,14.30
2006,08,18,08,55,14.30
2006,08,18,08,56,14.40
2006,08,18,08,57,14.50
2006,08,18,08,58,14.60
2006,08,18,08,59,14.70
2006,08,18,09,00,14.80
2006,08,18,09,01,15.00
2006,08,18,09,02,15.00
2006,08,18,09,03,15.10
2006,08,18,09,04,15.30
2006,08,18,09,05,15.40
2006,08,18,09,06,15.50
2006,08,18,09,07,15.60
2006,08,18,09,08,15.80
2006,08,18,09,09,15.90
2006,08,18,09,10,16.00
2006,08,18,09,11,16.10
2006,08,18,09,12,16.20
2006,08,18,09,13,16.30
2006,08,18,09,14,16.40
2006,08,18,09,15,16.50
2006,08,18,09,16,16.60
2006,08,18,09,17,16.70
2006,08,18,09,18,16.70
2006,08,18,09,19,16.70
2006,08,18,09,20,16.80
2006,08,18,09,21,16.80
2006,08,18,09,22,16.90
2006,08,18,09,23,17.00
2006,08,18,09,24,17.00
2006,08,18,09,25,17.10
2006,08,18,09,26,17.10
2006,08,18,09,27,17.20
2006,08,18,09,28,17.30
2006,08,18,09,29,17.40
2006,08,18,09,30,17.40
2006,08,18,09,31,17.50
2006,08,18,09,32,17.60
2006,08,18,09,33,17.70
2006,08,18,09,34,17.70
2006,08,18,09,35,17.80
2006,08,18,09,36,17.80
2006,08,18,09,37,17.80
2006,08,18,09,38,17.80
2006,08,18,09,39,17.80
2006,08,18,09,40,17.90
2006,08,18,09,41,17.90
2006,08,18,09,42,18.00
2006,08,18,09,43,18.00
2006,08,18,09,44,18.10
2006,08,18,09,45,18.20
2006,08,18,09,46,18.20
2006,08,18,09,47,18.30
2006,08,18,09,48,18.30
2006,08,18,09,49,18.40
2006,08,18,09,50,18.50
2006,08,18,09,51,18.50
2006,08,18,09,52,18.60
2006,08,18,09,53,18.60
2006,08,18,09,54,18.70
2006,08,18,09,55,18.70
2006,08,18,09,56,18.80
2006,08,18,09,57,18.90
2006,08,18,09,58,18.90
2006,08,18,09,59,18.90
2006,08,18,10,00,18.80
2006,08,18,10,01,18.80
2006,08,18,10,02,18.70
2006,08,18,10,03,18.70
2006,08,18,10,04,18.80
2006,08,18,10,05,18.80
2006,08,18,10,06,18.90
2006,08,18,10,07,19.00
2006,08,18,10,08,19.10
2006,08,18,10,09,19.10
2006,08,18,10,10,19.10
2006,08,18,10,11,19.10
2006,08,18,10,12,19.10
2006,08,18,10,13,19.10
2006,08,18,10,14,19.10
2006,08,18,10,15,19.10
2006,08,18,10,16,19.20
2006,08,18,10,17,19.30
2006,08,18,10,18,19.40
2006,08,18,10,19,19.40
2006,08,18,10,20,19.50
2006,08,18,10,21,19.60
2006,08,18,10,22,19.70
2006,08,18,10,23,19.80
2006,08,18,10,24,19.90
2006,08,18,10,25,20.00
2006,08,18,10,26,20.20
2006,08,18,10,27,20.20
2006,08,18,10,28,20.30
2006,08,18,10,29,20.30
2006,08,18,10,30,20.30
2006,08,18,10,31,20.40
2006,08,18,10,32,20.40
2006,08,18,10,33,20.40
2006,08,18,10,34,20.30
2006,08,18,10,35,20.30
2006,08,18,10,36,20.40
2006,08,18,10,37,20.40
2006,08,18,10,38,20.40
2006,08,18,10,39,20.40
2006,08,18,10,40,20.40
2006,08,18,10,41,20.50
2006,08,18,10,42,20.50
2006,08,18,10,43,20.60
2006,08,18,10,44,20.60
2006,08,18,10,45,20.50
2006,08,18,10,46,20.40
2006,08,18,10,47,20.40
2006,08,18,10,48,20.50
2006,08,18,10,49,20.60
2006,08,18,10,50,20.70
2006,08,18,10,51,20.80
2006,08,18,10,52,20.90
2006,08,18,10,53,20.90
2006,08,18,10,54,20.80
2006,08,18,10,55,20.80
2006,08,18,10,56,20.90
2006,08,18,10,57,20.90
2006,08,18,10,58,21.00
2006,08,18,10,59,21.00
2006,08,18,11,00,21.00
2006,08,18,11,01,20.90
2006,08,18,11,02,21.00
2006,08,18,11,03,21.00
2006,08,18,11,04,21.00
2006,08,18,11,05,21.10
2006,08,18,11,06,21.10
2006,08,18,11,07,21.10
2006,08,18,11,08,21.20
2006,08,18,11,09,21.30
2006,08,18,11,10,21.30
2006,08,18,11,11,21.20
2006,08,18,11,12,21.10
2006,08,18,11,13,21.20
2006,08,18,11,14,21.30
2006,08,18,11,15,21.40
2006,08,18,11,16,21.50
2006,08,18,11,17,21.60
2006,08,18,11,18,21.70
2006,08,18,11,19,21.70
2006,08,18,11,20,21.60
2006,08,18,11,21,21.50
2006,08,18,11,22,21.40
2006,08,18,11,23,21.50
2006,08,18,11,24,21.60
2006,08,18,11,25,21.60
2006,08,18,11,26,21.60
2006,08,18,11,27,21.60
2006,08,18,11,28,21.60
2006,08,18,11,29,21.50
2006,08,18,11,30,21.50
2006,08,18,11,31,21.60
2006,08,18,11,32,21.70
2006,08,18,11,33,21.80
2006,08,18,11,34,21.80
2006,08,18,11,35,21.80
2006,08,18,11,36,21.80
2006,08,18,11,37,21.80
2006,08,18,11,38,21.80
2006,08,18,11,39,21.80
2006,08,18,11,40,21.80
2006,08,18,11,41,21.90
2006,08,18,11,42,21.90
2006,08,18,11,43,22.00
2006,08,18,11,44,22.00
2006,08,18,11,45,22.10
2006,08,18,11,46,22.10
2006,08,18,11,47,22.10
2006,08,18,11,48,22.10
2006,08,18,11,49,22.20
2006,08,18,11,50,22.30
2006,08,18,11,51,22.30
2006,08,18,11,52,22.40
2006,08,18,11,53,22.40
2006,08,18,11,54,22.50
2006,08,18,11,55,22.50
2006,08,18,11,56,22.60
2006,08,18,11,57,22.70
2006,08,18,11,58,22.80
2006,08,18,11,59,22.90
2006,08,18,12,00,22.90
2006,08,18,12,01,22.90
2006,08,18,12,02,23.00
2006,08,18,12,03,23.10
2006,08,18,12,04,23.20
2006,08,18,12,05,23.40
2006,08,18,12,06,23.40
2006,08,18,12,07,23.40
2006,08,18,12,08,23.30
2006,08,18,12,09,23.30
2006,08,18,12,10,23.30
2006,08,18,12,11,23.30
2006,08,18,12,12,23.30
2006,08,18,12,13,23.30
2006,08,18,12,14,23.30
2006,08,18,12,15,23.20
2006,08,18,12,16,23.20
2006,08,18,12,17,23.20
2006,08,18,12,18,23.10
2006,08,18,12,19,23.10
2006,08,18,12,20,23.10
2006,08,18,12,21,23.10
2006,08,18,12,22,23.10
2006,08,18,12,23,23.20
2006,08,18,12,24,23.30
2006,08,18,12,25,23.50
2006,08,18,12,26,23.60
2006,08,18,12,27,23.60
2006,08,18,12,28,23.70
2006,08,18,12,29,23.70
2006,08,18,12,30,23.80
2006,08,18,12,31,23.80
2006,08,18,12,32,23.90
2006,08,18,12,33,24.00
2006,08,18,12,34,24.20
2006,08,18,12,35,24.20
2006,08,18,12,36,24.20
2006,08,18,12,37,24.20
2006,08,18,12,38,24.20
2006,08,18,12,39,24.10
2006,08,18,12,40,24.00
2006,08,18,12,41,23.90
2006,08,18,12,42,23.90
2006,08,18,12,43,23.90
2006,08,18,12,44,23.90
2006,08,18,12,45,23.90
2006,08,18,12,46,23.90
2006,08,18,12,47,23.90
2006,08,18,12,48,23.90
2006,08,18,12,49,24.00
2006,08,18,12,50,24.00
2006,08,18,12,51,24.00
2006,08,18,12,52,24.10
2006,08,18,12,53,24.10
2006,08,18,12,54,24.10
2006,08,18,12,55,24.20
2006,08,18,12,56,24.30
2006,08,18,12,57,24.30
2006,08,18,12,58,24.40
2006,08,18,12,59,24.40
2006,08,18,13,00,24.50
2006,08,18,13,01,24.40
2006,08,18,13,02,24.40
2006,08,18,13,03,24.40
2006,08,18,13,04,24.40
2006,08,18,13,05,24.40
2006,08,18,13,06,24.40
2006,08,18,13,07,24.50
2006,08,18,13,08,24.40
2006,08,18,13,09,24.40
2006,08,18,13,10,24.30
2006,08,18,13,11,24.40
2006,08,18,13,12,24.50
2006,08,18,13,13,24.60
2006,08,18,13,14,24.70
2006,08,18,13,15,24.70
2006,08,18,13,16,24.80
2006,08,18,13,17,24.90
2006,08,18,13,18,24.90
2006,08,18,13,19,25.00
2006,08,18,13,20,25.10
2006,08,18,13,21,25.10
2006,08,18,13,22,25.10
2006,08,18,13,23,25.10
2006,08,18,13,24,25.00
2006,08,18,13,25,25.00
2006,08,18,13,26,24.90
2006,08,18,13,27,24.80
2006,08,18,13,28,24.80
2006,08,18,13,29,24.70
2006,08,18,13,30,24.70
2006,08,18,13,31,24.60
2006,08,18,13,32,24.60
2006,08,18,13,33,24.70
2006,08,18,13,34,24.70
2006,08,18,13,35,24.70
2006,08,18,13,36,24.80
2006,08,18,13,37,24.80
2006,08,18,13,38,24.80
2006,08,18,13,39,24.80
2006,08,18,13,40,24.90
2006,08,18,13,41,24.90
2006,08,18,13,42,24.90
2006,08,18,13,43,24.90
2006,08,18,13,44,25.00
2006,08,18,13,45,25.00
2006,08,18,13,46,25.10
2006,08,18,13,47,25.10
2006,08,18,13,48,25.20
2006,08,18,13,49,25.20
2006,08,18,13,50,25.30
2006,08,18,13,51,25.40
2006,08,18,13,52,25.50
2006,08,18,13,53,25.60
2006,08,18,13,54,25.60
2006,08,18,13,55,25.60
2006,08,18,13,56,25.50
2006,08,18,13,57,25.50
2006,08,18,13,58,25.40
2006,08,18,13,59,25.30
2006,08,18,14,00,25.20
2006,08,18,14,01,25.20
2006,08,18,14,02,25.20
2006,08,18,14,03,25.30
2006,08,18,14,04,25.40
2006,08,18,14,05,25.40
2006,08,18,14,06,25.40
2006,08,18,14,07,25.30
2006,08,18,14,08,25.30
2006,08,18,14,09,25.30
2006,08,18,14,10,25.20
2006,08,18,14,11,25.20
2006,08,18,14,12,25.20
2006,08,18,14,13,25.20
2006,08,18,14,14,25.30
2006,08,18,14,15,25.30
2006,08,18,14,16,25.30
2006,08,18,14,17,25.40
2006,08,18,14,18,25.50
2006,08,18,14,19,25.60
2006,08,18,14,20,25.60
2006,08,18,14,21,25.60
2006,08,18,14,22,25.60
2006,08,18,14,23,25.60
2006,08,18,14,24,25.70
2006,08,18,14,25,25.80
2006,08,18,14,26,25.90
2006,08,18,14,27,25.90
2006,08,18,14,28,25.90
2006,08,18,14,29,26.00
2006,08,18,14,30,26.10
2006,08,18,14,31,26.10
2006,08,18,14,32,26.00
2006,08,18,14,33,25.90
2006,08,18,14,34,25.80
2006,08,18,14,35,25.80
2006,08,18,14,36,25.80
2006,08,18,14,37,25.90
2006,08,18,14,38,25.90
2006,08,18,14,39,25.80
2006,08,18,14,40,25.70
2006,08,18,14,41,25.70
2006,08,18,14,42,25.80
2006,08,18,14,43,25.80
2006,08,18,14,44,25.90
2006,08,18,14,45,25.90
2006,08,18,14,46,26.00
2006,08,18,14,47,26.20
2006,08,18,14,48,26.30
2006,08,18,14,49,26.30
2006,08,18,14,50,26.30
2006,08,18,14,51,26.30
2006,08,18,14,52,26.20
2006,08,18,14,53,26.20
2006,08,18,14,54,26.20
2006,08,18,14,55,26.10
2006,08,18,14,56,26.10
2006,08,18,14,57,26.10
2006,08,18,14,58,26.10
2006,08,18,14,59,26.10
2006,08,18,15,00,26.20
2006,08,18,15,01,26.30
2006,08,18,15,02,26.20
2006,08,18,15,03,26.20
2006,08,18,15,04,26.10
2006,08,18,15,05,26.10
2006,08,18,15,06,26.10
2006,08,18,15,07,26.10
2006,08,18,15,08,26.10
2006,08,18,15,09,26.20
2006,08,18,15,10,26.30
2006,08,18,15,11,26.40
2006,08,18,15,12,26.40
2006,08,18,15,13,26.40
2006,08,18,15,14,26.40
2006,08,18,15,15,26.40
2006,08,18,15,16,26.30
2006,08,18,15,17,26.30
2006,08,18,15,18,26.30
2006,08,18,15,19,26.30
2006,08,18,15,20,26.30
2006,08,18,15,21,26.40
2006,08,18,15,22,26.50
2006,08,18,15,23,26.50
2006,08,18,15,24,26.60
2006,08,18,15,25,26.60
2006,08,18,15,26,26.60
2006,08,18,15,27,26.60
2006,08,18,15,28,26.70
2006,08,18,15,29,26.70
2006,08,18,15,30,26.70
2006,08,18,15,31,26.60
2006,08,18,15,32,26.60
2006,08,18,15,33,26.60
2006,08,18,15,34,26.60
2006,08,18,15,35,26.60
2006,08,18,15,36,26.70
2006,08,18,15,37,26.70
2006,08,18,15,38,26.70
2006,08,18,15,39,26.70
2006,08,18,15,40,26.60
2006,08,18,15,41,26.70
2006,08,18,15,42,26.70
2006,08,18,15,43,26.70
2006,08,18,15,44,26.70
2006,08,18,15,45,26.80
2006,08,18,15,46,26.80
2006,08,18,15,47,26.90
2006,08,18,15,48,27.00
2006,08,18,15,49,26.90
2006,08,18,15,50,26.90
2006,08,18,15,51,26.90
2006,08,18,15,52,26.90
2006,08,18,15,53,26.90
2006,08,18,15,54,26.90
2006,08,18,15,55,26.90
2006,08,18,15,56,26.90
2006,08,18,15,57,26.80
2006,08,18,15,58,26.80
2006,08,18,15,59,26.80
2006,08,18,16,00,26.80
2006,08,18,16,01,26.70
2006,08,18,16,02,26.70
2006,08,18,16,03,26.70
2006,08,18,16,04,26.60
2006,08,18,16,05,26.50
2006,08,18,16,06,26.50
2006,08,18,16,07,26.40
2006,08,18,16,08,26.40
2006,08,18,16,09,26.50
2006,08,18,16,10,26.50
2006,08,18,16,11,26.60
2006,08,18,16,12,26.60
2006,08,18,16,13,26.70
2006,08,18,16,14,26.70
2006,08,18,16,15,26.80
2006,08,18,16,16,26.80
2006,08,18,16,17,26.90
2006,08,18,16,18,26.90
2006,08,18,16,19,26.90
2006,08,18,16,20,26.90
2006,08,18,16,21,26.90
2006,08,18,16,22,26.90
2006,08,18,16,23,27.00
2006,08,18,16,24,27.00
2006,08,18,16,25,27.00
2006,08,18,16,26,26.90
2006,08,18,16,27,26.90
2006,08,18,16,28,26.80
2006,08,18,16,29,26.80
2006,08,18,16,30,26.80
2006,08,18,16,31,26.80
2006,08,18,16,32,26.90
2006,08,18,16,33,26.90
2006,08,18,16,34,27.00
2006,08,18,16,35,27.10
2006,08,18,16,36,27.10
2006,08,18,16,37,27.00
2006,08,18,16,38,27.00
2006,08,18,16,39,26.90
2006,08,18,16,40,27.00
2006,08,18,16,41,26.90
2006,08,18,16,42,26.90
2006,08,18,16,43,26.90
2006,08,18,16,44,26.90
2006,08,18,16,45,26.90
2006,08,18,16,46,27.00
2006,08,18,16,47,27.10
2006,08,18,16,48,27.10
2006,08,18,16,49,27.00
2006,08,18,16,50,27.00
2006,08,18,16,51,26.90
2006,08,18,16,52,26.90
2006,08,18,16,53,26.90
2006,08,18,16,54,26.90
2006,08,18,16,55,26.90
2006,08,18,16,56,26.80
2006,08,18,16,57,26.80
2006,08,18,16,58,26.70
2006,08,18,16,59,26.70
2006,08,18,17,00,26.70
2006,08,18,17,01,26.70
2006,08,18,17,02,26.70
2006,08,18,17,03,26.70
2006,08,18,17,04,26.80
2006,08,18,17,05,26.70
2006,08,18,17,06,26.70
2006,08,18,17,07,26.70
2006,08,18,17,08,26.70
2006,08,18,17,09,26.60
2006,08,18,17,10,26.60
2006,08,18,17,11,26.60
2006,08,18,17,12,26.60
2006,08,18,17,13,26.60
2006,08,18,17,14,26.60
2006,08,18,17,15,26.60
2006,08,18,17,16,26.50
2006,08,18,17,17,26.50
2006,08,18,17,18,26.50
2006,08,18,17,19,26.50
2006,08,18,17,20,26.50
2006,08,18,17,21,26.40
2006,08,18,17,22,26.40
2006,08,18,17,23,26.40
2006,08,18,17,24,26.40
2006,08,18,17,25,26.40
2006,08,18,17,26,26.50
2006,08,18,17,27,26.50
2006,08,18,17,28,26.60
2006,08,18,17,29,26.70
2006,08,18,17,30,26.70
2006,08,18,17,31,26.70
2006,08,18,17,32,26.70
2006,08,18,17,33,26.70